COSMOS 2436 (723)

Last updated on Thu Oct 30 2025 00:03:21 GMT+0000 (Coordinated Universal Time)

1 32395U 07065C 25301.98986012 .00000015 00000+0 00000+0 0 9998 2 32395 64.3230 199.7830 0017400 4.4636 340.6441 2.13099997138793
UTC large
Height (km)
Speed (km/s)
/
Latitude / Longitude
Inclination (degrees)
Orbital Period (minutes)
Azimuth
Elevation
Range (km)
Doppler Factor

Next 0 passes for location: London (51.5072 / 0.1276)

Sorry there are no passes over London.